GW5948 Weather Reports


time (UTC)temp
C
wind
direction
speed
KPH
gust
KPH
rain 1hr
cm
rain 24hr
cm
rain mn
cm
humidity
%
barometer
mb
20260508053017 11 104 12.9 20.9 0.00 0.00 0.00 88 1013.2
20260508052018 11 109 9.7 20.9 0.00 0.00 0.00 89 1013.2
20260508051018 11 104 14.5 24.1 0.00 0.00 0.00 88 1013.2
20260508050020 11 96 8.0 14.5 0.00 0.00 0.00 87 1013.2
20260508045017 11 117 9.7 16.1 0.00 0.00 0.00 87 1013.4
20260508044018 10 101 8.0 17.7 0.00 0.00 0.00 88 1013.4
20260508043016 10 112 11.3 17.7 0.00 0.00 0.00 89 1013.4
20260508042016 10 105 9.7 17.7 0.00 0.00 0.00 89 1013.3
20260508041017 10 105 9.7 17.7 0.00 0.00 0.00 89 1013.3
20260508040017 10 104 12.9 22.5 0.00 0.00 0.00 90 1013.1
20260508035017 10 119 12.9 19.3 0.00 0.00 0.00 90 1013.1
20260508034018 10 123 8.0 16.1 0.00 0.00 0.00 90 1013.0
20260508033017 10 106 9.7 16.1 0.00 0.00 0.00 90 1013.0
20260508032018 10 102 8.0 16.1 0.00 0.00 0.00 90 1013.1
20260508031037 10 111 8.0 14.5 0.00 0.00 0.00 90 1013.0
20260508030039 10 86 8.0 14.5 0.00 0.00 0.00 90 1012.8
20260508025020 10 97 6.4 12.9 0.00 0.00 0.00 89 1012.7
20260508024019 10 105 8.0 17.7 0.00 0.00 0.00 89 1012.5
20260508023020 10 102 8.0 16.1 0.00 0.00 0.00 88 1012.6
20260508022018 10 124 8.0 19.3 0.00 0.00 0.00 88 1012.7
20260508021019 10 102 11.3 17.7 0.00 0.00 0.00 87 1012.5
20260508020040 10 100 9.7 17.7 0.00 0.00 0.00 87 1012.5
20260508015019 10 96 8.0 16.1 0.00 0.00 0.00 86 1012.5
20260508014020 10 97 9.7 16.1 0.00 0.00 0.00 86 1012.5
20260508013019 10 100 9.7 14.5 0.00 0.00 0.00 85 1012.5
20260508012020 11 104 11.3 17.7 0.00 0.00 0.00 85 1012.4
20260508011019 11 112 11.3 19.3 0.00 0.00 0.00 85 1012.5
20260508010020 11 118 11.3 17.7 0.00 0.00 0.00 84 1012.4
20260508005040 11 104 11.3 16.1 0.00 0.00 0.00 84 1012.4
20260508004019 11 115 9.7 16.1 0.00 0.00 0.00 84 1012.4
20260508003020 11 105 11.3 17.7 0.00 0.00 0.00 83 1012.3
20260508002019 11 102 12.9 20.9 0.00 0.00 0.00 83 1012.3
20260508001020 11 103 11.3 22.5 0.00 0.00 0.00 82 1012.3
20260508000038 11 97 11.3 19.3 0.00 0.00 0.00 82 1012.3
20260507235019 11 104 11.3 16.1 0.00 0.00 0.00 82 1012.4
20260507234020 11 109 12.9 20.9 0.00 0.00 0.00 81 1012.4
20260507233020 12 114 12.9 19.3 0.00 0.00 0.00 81 1012.4
20260507232020 12 101 12.9 19.3 0.00 0.00 0.00 81 1012.4
20260507231019 12 112 11.3 16.1 0.00 0.00 0.00 80 1012.6
20260507230020 12 117 11.3 22.5 0.00 0.00 0.00 80 1012.4
20260507225021 12 116 9.7 20.9 0.00 0.00 0.00 79 1012.5
20260507224020 12 112 12.9 20.9 0.00 0.00 0.00 79 1012.5
20260507223040 12 109 11.3 19.3 0.00 0.00 0.00 78 1012.7
20260507222020 12 115 14.5 22.5 0.00 0.00 0.00 77 1012.6
20260507221020 12 103 12.9 19.3 0.00 0.00 0.00 77 1012.7
20260507220021 12 99 11.3 17.7 0.00 0.00 0.00 77 1012.7
20260507215019 13 113 14.5 24.1 0.00 0.00 0.00 76 1012.6
20260507214020 13 94 12.9 19.3 0.00 0.00 0.00 76 1012.6
20260507213019 13 99 12.9 19.3 0.00 0.00 0.00 74 1012.5
20260507212020 13 118 12.9 24.1 0.00 0.00 0.00 73 1012.5
20260507211020 13 113 14.5 24.1 0.00 0.00 0.00 73 1012.4
20260507210019 13 109 14.5 20.9 0.00 0.00 0.00 72 1012.6
20260507205021 14 111 9.7 16.1 0.00 0.00 0.00 71 1012.5
20260507204021 14 111 16.1 24.1 0.00 0.00 0.00 70 1012.3
20260507203019 15 111 14.5 24.1 0.00 0.00 0.00 70 1012.4
20260507202021 15 118 12.9 24.1 0.00 0.00 0.00 69 1012.3
20260507201019 15 108 14.5 22.5 0.00 0.00 0.00 68 1012.4
20260507200018 15 108 14.5 24.1 0.00 0.00 0.00 68 1012.4
20260507195018 15 106 11.3 25.7 0.00 0.00 0.00 67 1012.5
20260507194019 16 100 11.3 19.3 0.00 0.00 0.00 67 1012.4
20260507193019 16 102 8.0 14.5 0.00 0.00 0.00 67 1012.5
20260507192059 16 106 9.7 16.1 0.00 0.00 0.00 66 1012.4
20260507191020 16 107 11.3 20.9 0.00 0.00 0.00 66 1012.4
20260507190021 16 99 11.3 24.1 0.00 0.00 0.00 65 1012.3
20260507185018 17 103 9.7 16.1 0.00 0.00 0.00 64 1012.3
20260507184039 17 110 11.3 20.9 0.00 0.00 0.00 62 1012.3
20260507183101 17 107 12.9 19.3 0.00 0.00 0.00 61 1012.2
20260507182019 18 105 9.7 19.3 0.00 0.00 0.00 61 1012.2
20260507181020 18 115 9.7 19.3 0.00 0.00 0.00 58 1012.1
20260507180019 19 112 11.3 19.3 0.00 0.00 0.00 57 1012.0
20260507175019 19 116 9.7 22.5 0.00 0.00 0.00 56 1011.9
20260507174018 20 117 14.5 27.4 0.00 0.00 0.00 55 1011.9
20260507173021 20 120 12.9 20.9 0.00 0.00 0.00 54 1011.9
20260507172059 20 114 11.3 20.9 0.00 0.00 0.00 53 1011.8
20260507171020 21 115 9.7 17.7 0.00 0.00 0.00 50 1011.7
20260507170019 21 121 9.7 22.5 0.00 0.00 0.00 48 1011.6
20260507165019 21 138 12.9 30.6 0.00 0.00 0.00 46 1011.6
20260507164019 21 133 8.0 14.5 0.00 0.00 0.00 48 1011.6
20260507163020 22 129 11.3 24.1 0.00 0.00 0.00 46 1011.5
20260507162019 22 134 14.5 30.6 0.00 0.00 0.00 46 1011.4
20260507161019 22 123 11.3 27.4 0.00 0.00 0.00 45 1011.4
20260507160019 22 121 12.9 29.0 0.00 0.00 0.00 45 1011.5
20260507155019 23 132 12.9 22.5 0.00 0.00 0.00 44 1011.5
20260507154019 23 139 12.9 25.7 0.00 0.00 0.00 43 1011.5
20260507153020 23 130 14.5 30.6 0.00 0.00 0.00 42 1011.5
20260507152019 23 126 17.7 33.8 0.00 0.00 0.00 41 1011.4
20260507151040 23 139 12.9 25.7 0.00 0.00 0.00 41 1011.6
20260507150020 23 128 14.5 33.8 0.00 0.00 0.00 41 1011.8
20260507145020 23 126 16.1 29.0 0.00 0.00 0.00 40 1011.6
20260507144021 23 125 16.1 30.6 0.00 0.00 0.00 41 1011.7
20260507143019 23 127 14.5 29.0 0.00 0.00 0.00 40 1011.8
20260507142100 23 130 14.5 27.4 0.00 0.00 0.00 39 1011.9
20260507141021 24 125 14.5 27.4 0.00 0.00 0.00 38 1012.0
20260507140019 24 133 14.5 32.2 0.00 0.00 0.00 38 1012.1
20260507135019 24 125 17.7 30.6 0.00 0.00 0.00 37 1012.0
20260507134019 24 126 14.5 27.4 0.00 0.00 0.00 36 1012.0
20260507133019 24 150 17.7 33.8 0.00 0.00 0.00 36 1012.1
20260507132019 25 143 12.9 27.4 0.00 0.00 0.00 37 1012.1
20260507131019 25 124 14.5 29.0 0.00 0.00 0.00 36 1012.1
20260507130020 24 129 12.9 22.5 0.00 0.00 0.00 36 1012.1
20260507125020 24 141 12.9 30.6 0.00 0.00 0.00 37 1012.2
20260507124019 24 129 14.5 25.7 0.00 0.00 0.00 37 1012.5
20260507123019 24 140 12.9 27.4 0.00 0.00 0.00 37 1012.6
20260507122019 24 121 14.5 29.0 0.00 0.00 0.00 36 1012.6
20260507121018 24 140 12.9 24.1 0.00 0.00 0.00 36 1012.7
20260507120040 24 137 11.3 30.6 0.00 0.00 0.00 36 1012.9
20260507115020 24 133 14.5 25.7 0.00 0.00 0.00 36 1012.9
20260507114020 24 106 12.9 25.7 0.00 0.00 0.00 36 1012.9
20260507113023 23 143 12.9 25.7 0.00 0.00 0.00 36 1013.0
20260507112021 23 164 16.1 32.2 0.00 0.00 0.00 35 1013.1
20260507111020 23 135 14.5 25.7 0.00 0.00 0.00 35 1013.2
20260507110022 23 123 17.7 29.0 0.00 0.00 0.00 35 1013.2
20260507105020 23 138 14.5 25.7 0.00 0.00 0.00 35 1013.2
20260507104022 23 146 14.5 25.7 0.00 0.00 0.00 34 1013.2
20260507103019 23 121 16.1 30.6 0.00 0.00 0.00 34 1013.3
20260507102019 23 135 12.9 25.7 0.00 0.00 0.00 35 1013.4
20260507101020 23 123 14.5 24.1 0.00 0.00 0.00 36 1013.4
20260507100019 23 126 16.1 30.6 0.00 0.00 0.00 36 1013.5
20260507095020 23 114 14.5 24.1 0.00 0.00 0.00 36 1013.4
20260507094020 23 145 16.1 24.1 0.00 0.00 0.00 35 1013.5
20260507093019 22 127 14.5 27.4 0.00 0.00 0.00 36 1013.6
20260507092021 22 124 12.9 27.4 0.00 0.00 0.00 36 1013.7
20260507091020 22 123 16.1 29.0 0.00 0.00 0.00 35 1013.6
20260507090019 22 125 17.7 29.0 0.00 0.00 0.00 36 1013.6
20260507085019 22 124 16.1 29.0 0.00 0.00 0.00 36 1013.6
20260507084018 22 133 14.5 30.6 0.00 0.00 0.00 36 1013.6
20260507083018 22 131 16.1 32.2 0.00 0.00 0.00 36 1013.6
20260507082019 22 126 14.5 25.7 0.00 0.00 0.00 37 1013.6
20260507081019 21 120 12.9 27.4 0.00 0.00 0.00 38 1013.6
20260507080020 21 126 14.5 29.0 0.00 0.00 0.00 38 1013.6
20260507075020 21 126 14.5 27.4 0.00 0.00 0.00 39 1013.8
20260507074019 21 126 12.9 27.4 0.00 0.00 0.00 39 1013.8
20260507073020 20 121 14.5 25.7 0.00 0.00 0.00 41 1013.8
20260507072020 20 119 12.9 25.7 0.00 0.00 0.00 45 1013.8
20260507071019 19 115 11.3 25.7 0.00 0.00 0.00 47 1013.7
20260507070019 19 118 12.9 22.5 0.00 0.00 0.00 49 1013.7
20260507065019 18 115 9.7 24.1 0.00 0.00 0.00 49 1013.8
20260507064020 18 109 12.9 22.5 0.00 0.00 0.00 50 1013.8
20260507063019 17 118 14.5 24.1 0.00 0.00 0.00 49 1013.8
20260507062021 17 118 9.7 20.9 0.00 0.00 0.00 50 1013.8
20260507061020 17 120 11.3 27.4 0.00 0.00 0.00 51 1013.9
20260507060059 16 117 14.5 29.0 0.00 0.00 0.00 52 1013.9
20260507055019 16 114 11.3 22.5 0.00 0.00 0.00 54 1013.8
20260507054019 16 118 9.7 20.9 0.00 0.00 0.00 56 1013.8